TimeCST,TemperatureF,Dew PointF,Humidity,Sea Level PressureIn,VisibilityMPH,Wind Direction,Wind SpeedMPH,Gust SpeedMPH,PrecipitationIn,Events,Conditions,WindDirDegrees,DateUTC
12:15 AM,33.8,32.0,93,29.79,4.0,East,10.4,-,0.01,Rain,Light Rain,90,2013-02-21 06:15:00
12:35 AM,33.8,32.0,93,29.79,5.0,East,15.0,-,0.02,Rain,Light Rain,90,2013-02-21 06:35:00
12:55 AM,33.8,32.0,93,29.77,3.0,ENE,12.7,-,0.12,Rain,Heavy Rain,70,2013-02-21 06:55:00
1:15 AM,32.0,32.0,100,29.77,2.5,East,9.2,-,0.03,Rain,Rain,80,2013-02-21 07:15:00
1:35 AM,32.0,32.0,100,29.72,2.5,ENE,15.0,18.4,0.14,,Overcast,70,2013-02-21 07:35:00
1:55 AM,32.0,32.0,100,29.74,5.0,East,10.4,-,0.17,Rain,Rain,90,2013-02-21 07:55:00
2:15 AM,32.0,32.0,100,29.77,5.0,East,6.9,10.4,0.03,Rain,Rain,100,2013-02-21 08:15:00
2:35 AM,32.0,32.0,100,29.76,2.5,NE,9.2,-,0.04,Snow,Light Snow,40,2013-02-21 08:35:00
2:55 AM,32.0,32.0,100,29.75,2.0,ENE,9.2,-,0.12,Snow,Light Snow,70,2013-02-21 08:55:00
3:15 AM,32.0,32.0,100,29.78,3.0,NNE,3.5,-,0.04,Snow,Light Snow,20,2013-02-21 09:15:00
3:35 AM,32.0,32.0,100,29.76,3.0,ENE,4.6,-,0.06,Snow,Light Snow,60,2013-02-21 09:35:00
3:55 AM,32.0,32.0,100,29.77,1.2,NNE,5.8,-,0.09,Snow,Light Snow,20,2013-02-21 09:55:00
4:15 AM,32.0,32.0,100,29.75,3.0,NE,9.2,-,0.01,Snow,Light Snow,40,2013-02-21 10:15:00
4:35 AM,32.0,32.0,100,29.73,7.0,NE,11.5,-,0.02,,Overcast,50,2013-02-21 10:35:00
4:55 AM,32.0,32.0,100,29.72,7.0,NE,12.7,-,0.03,Snow,Light Snow,40,2013-02-21 10:55:00
5:15 AM,32.0,30.2,93,29.73,10.0,NE,13.8,-,0.01,,Overcast,40,2013-02-21 11:15:00
5:35 AM,32.0,32.0,100,29.72,7.0,NE,13.8,-,0.02,,Overcast,50,2013-02-21 11:35:00
5:55 AM,32.0,30.2,93,29.69,10.0,ENE,16.1,-,0.02,,Overcast,70,2013-02-21 11:55:00
6:15 AM,32.0,30.2,93,29.69,10.0,East,16.1,19.6,N/A,,Overcast,80,2013-02-21 12:15:00
6:35 AM,32.0,30.2,93,29.69,10.0,East,13.8,-,N/A,,Overcast,90,2013-02-21 12:35:00
6:55 AM,32.0,30.2,93,29.69,10.0,East,12.7,-,N/A,,Overcast,90,2013-02-21 12:55:00
7:15 AM,32.0,30.2,93,29.69,10.0,East,10.4,19.6,N/A,,Overcast,90,2013-02-21 13:15:00
7:35 AM,32.0,30.2,93,29.69,10.0,ENE,10.4,-,N/A,,Overcast,70,2013-02-21 13:35:00
7:55 AM,32.0,30.2,93,29.69,10.0,East,9.2,16.1,N/A,,Overcast,80,2013-02-21 13:55:00
8:15 AM,32.0,30.2,93,29.66,10.0,ENE,11.5,-,N/A,,Overcast,60,2013-02-21 14:15:00
8:35 AM,32.0,30.2,93,29.66,10.0,East,13.8,-,N/A,,Overcast,80,2013-02-21 14:35:00
9:15 AM,32.0,30.2,93,29.67,10.0,East,11.5,-,N/A,,Overcast,90,2013-02-21 15:15:00
9:35 AM,32.0,30.2,93,29.66,10.0,East,10.4,-,N/A,,Overcast,90,2013-02-21 15:35:00
9:55 AM,32.0,30.2,93,29.66,10.0,ESE,10.4,-,N/A,,Overcast,110,2013-02-21 15:55:00
10:15 AM,32.0,30.2,93,29.68,10.0,SE,8.1,-,N/A,,Overcast,130,2013-02-21 16:15:00
10:35 AM,32.0,30.2,93,29.67,10.0,SE,8.1,-,N/A,,Overcast,130,2013-02-21 16:35:00
10:55 AM,32.0,32.0,100,29.66,10.0,ESE,9.2,-,N/A,,Overcast,120,2013-02-21 16:55:00
11:15 AM,32.0,32.0,100,29.66,10.0,SE,4.6,-,N/A,,Overcast,130,2013-02-21 17:15:00
11:35 AM,32.0,32.0,100,29.69,10.0,SSE,4.6,-,N/A,,Overcast,150,2013-02-21 17:35:00
11:55 AM,32.0,32.0,100,29.69,7.0,SW,4.6,-,N/A,,Overcast,220,2013-02-21 17:55:00
12:15 PM,32.0,32.0,100,29.71,7.0,SW,3.5,-,N/A,,Overcast,230,2013-02-21 18:15:00
12:35 PM,32.0,32.0,100,29.69,4.0,Calm,Calm,-,N/A,,Overcast,0,2013-02-21 18:35:00
12:55 PM,32.0,32.0,100,29.69,3.0,WNW,5.8,-,N/A,,Overcast,300,2013-02-21 18:55:00
1:35 PM,32.0,32.0,100,29.68,2.0,NW,4.6,-,N/A,,Overcast,310,2013-02-21 19:35:00
1:55 PM,32.0,32.0,100,29.69,1.5,WNW,5.8,-,N/A,,Overcast,300,2013-02-21 19:55:00
2:15 PM,32.0,32.0,100,29.69,2.0,NW,6.9,-,N/A,,Overcast,310,2013-02-21 20:15:00
2:35 PM,32.0,32.0,100,29.69,2.0,NW,5.8,-,N/A,,Overcast,320,2013-02-21 20:35:00
3:15 PM,32.0,32.0,100,29.71,10.0,WNW,5.8,-,N/A,,Overcast,300,2013-02-21 21:15:00
3:55 PM,33.8,32.0,93,29.73,10.0,WNW,5.8,-,N/A,,Overcast,290,2013-02-21 21:55:00
4:15 PM,33.8,32.0,93,29.75,10.0,West,8.1,-,N/A,,Overcast,280,2013-02-21 22:15:00
4:35 PM,33.8,32.0,93,29.75,10.0,NW,12.7,-,N/A,,Overcast,310,2013-02-21 22:35:00
4:55 PM,32.0,30.2,93,29.76,10.0,NW,15.0,21.9,N/A,,Overcast,320,2013-02-21 22:55:00
5:15 PM,32.0,30.2,93,29.80,10.0,NW,20.7,26.5,N/A,,Overcast,310,2013-02-21 23:15:00
5:35 PM,32.0,26.6,80,29.81,10.0,NW,19.6,25.3,N/A,,Overcast,320,2013-02-21 23:35:00
5:55 PM,30.2,24.8,80,29.83,10.0,NW,20.7,27.6,N/A,,Overcast,320,2013-02-21 23:55:00
6:15 PM,30.2,23.0,75,29.83,10.0,NW,19.6,26.5,N/A,,Overcast,320,2013-02-22 00:15:00
6:35 PM,28.4,23.0,80,29.85,10.0,NW,20.7,25.3,N/A,,Overcast,320,2013-02-22 00:35:00
6:55 PM,28.4,21.2,74,29.86,10.0,NW,17.3,24.2,N/A,,Mostly Cloudy,320,2013-02-22 00:55:00
7:15 PM,26.6,19.4,74,29.88,10.0,NW,15.0,-,N/A,,Clear,320,2013-02-22 01:15:00
7:35 PM,26.6,19.4,74,29.88,10.0,NW,19.6,-,N/A,,Clear,320,2013-02-22 01:35:00
7:55 PM,24.8,19.4,80,29.90,10.0,NW,18.4,-,N/A,,Clear,320,2013-02-22 01:55:00
8:15 PM,24.8,19.4,80,29.91,10.0,NW,15.0,-,N/A,,Clear,320,2013-02-22 02:15:00
8:35 PM,23.0,17.6,80,29.92,10.0,NW,15.0,-,N/A,,Clear,320,2013-02-22 02:35:00
8:55 PM,23.0,17.6,80,29.92,10.0,NW,15.0,-,N/A,,Clear,320,2013-02-22 02:55:00
9:15 PM,23.0,17.6,80,29.94,10.0,NW,13.8,-,N/A,,Clear,320,2013-02-22 03:15:00
9:35 PM,23.0,17.6,80,29.95,10.0,NW,10.4,-,N/A,,Clear,310,2013-02-22 03:35:00
9:55 PM,23.0,17.6,80,29.94,10.0,NNW,16.1,-,N/A,,Clear,330,2013-02-22 03:55:00
10:15 PM,23.0,17.6,80,29.96,10.0,NNW,10.4,18.4,N/A,,Clear,330,2013-02-22 04:15:00
10:35 PM,23.0,17.6,80,29.97,10.0,NW,10.4,-,N/A,,Clear,320,2013-02-22 04:35:00
10:55 PM,23.0,15.8,74,29.98,10.0,NW,12.7,-,N/A,,Clear,320,2013-02-22 04:55:00
11:15 PM,23.0,15.8,74,29.99,10.0,NW,11.5,-,N/A,,Clear,320,2013-02-22 05:15:00
11:35 PM,23.0,15.8,74,30.00,10.0,WNW,9.2,-,N/A,,Scattered Clouds,300,2013-02-22 05:35:00